FW2439 Weather Reports


Display with metric or nautical units.
time (UTC)temp
F
wind
direction
speed
MPH
gust
MPH
rain 1hr
in
rain 24hr
in
rain mn
in
humidity
%
barometer
mb
20260504193000 80 193 3.0 9.0 0.00 0.00 0.00 48 1012.0
20260504191559 80 212 5.0 14.0 0.00 0.00 0.00 47 1012.3
20260504190125 80 223 5.0 11.0 0.00 0.00 0.00 46 1012.4
20260504184558 79 176 5.0 8.0 0.00 0.00 0.00 48 1012.4
20260504183051 78 212 5.0 14.0 0.00 0.00 0.00 50 1012.4
20260504181556 78 203 7.0 16.0 0.00 0.00 0.00 48 1012.5
20260504180128 78 181 4.0 13.0 0.00 0.00 0.00 50 1012.6
20260504174549 78 173 4.0 12.0 0.00 0.00 0.00 49 1012.9
20260504173056 78 225 4.0 10.0 0.00 0.00 0.00 50 1013.2
20260504171540 78 176 4.0 10.0 0.00 0.00 0.00 51 1013.3
20260504081515 56 229 0.0 3.0 0.00 0.00 0.00 75 1014.5
20260504050117 55 223 0.0 1.0 0.00 0.00 0.00 73 1015.9
20260504044548 55 223 0.0 2.0 0.00 0.00 0.00 74 1015.9
20260504043047 55 216 0.0 1.0 0.00 0.00 0.00 74 1016.0
20260504041547 55 216 0.0 0.0 0.00 0.00 0.00 75 1016.2
20260504040046 55 216 0.0 0.0 0.00 0.00 0.00 75 1016.4
20260504034551 54 216 0.0 1.0 0.00 0.00 0.00 75 1016.5
20260504033046 54 216 0.0 1.0 0.00 0.00 0.00 77 1016.4
20260504031603 53 216 0.0 1.0 0.00 0.00 0.00 79 1016.6
20260504030044 53 216 0.0 1.0 0.00 0.00 0.00 80 1016.8
20260504024545 53 216 0.0 1.0 0.00 0.00 0.00 79 1016.7
20260504023043 54 216 0.0 0.0 0.00 0.00 0.00 77 1016.7
20260504021542 55 216 0.0 0.0 0.00 0.00 0.00 75 1016.6
20260504020043 55 216 0.0 0.0 0.00 0.00 0.00 73 1016.5
20260504014544 56 216 0.0 0.0 0.00 0.00 0.00 71 1016.3
20260504013041 58 216 0.0 0.0 0.00 0.00 0.00 68 1016.1
20260504011546 59 216 0.0 0.0 0.00 0.00 0.00 64 1016.1
20260504010045 61 216 0.0 0.0 0.00 0.00 0.00 61 1016.3
20260504004540 63 216 0.0 0.0 0.00 0.00 0.00 55 1016.1
20260504003045 65 216 0.0 0.0 0.00 0.00 0.00 52 1016.2
20260504001552 67 216 0.0 1.0 0.00 0.00 0.00 48 1016.2
20260504000037 68 216 0.0 4.0 0.00 0.00 0.00 46 1016.1
20260503234536 69 222 0.0 4.0 0.00 0.00 0.00 45 1016.3
20260503233035 70 224 0.0 5.0 0.00 0.00 0.00 44 1016.6
20260503231545 70 173 3.0 11.0 0.00 0.00 0.00 42 1016.4
20260503230033 72 215 0.0 8.0 0.00 0.00 0.00 40 1016.4
20260503224531 73 249 2.0 8.0 0.00 0.00 0.00 40 1016.9
20260503223029 73 194 2.0 10.0 0.00 0.00 0.00 39 1016.9
20260503221527 73 165 4.0 11.0 0.00 0.00 0.00 40 1017.1
20260503220034 73 209 1.0 8.0 0.00 0.00 0.00 40 1017.1
20260503214522 73 188 3.0 8.0 0.00 0.00 0.00 40 1017.4
20260503213022 74 205 1.0 6.0 0.00 0.00 0.00 38 1017.8
20260503211522 73 205 1.0 10.0 0.00 0.00 0.00 42 1018.1
20260503210017 72 239 1.0 5.0 0.00 0.00 0.00 39 1018.3
20260503204510 73 211 3.0 8.0 0.00 0.00 0.00 39 1018.6
20260503203014 72 286 2.0 8.0 0.00 0.00 0.00 37 1018.8
20260503201510 72 209 3.0 7.0 0.00 0.00 0.00 40 1019.0
20260503200006 72 217 2.0 6.0 0.00 0.00 0.00 40 1019.1
20260503194506 72 187 2.0 8.0 0.00 0.00 0.00 40 1019.3